owner,sensor,date,latitude,longitude,relative_humidity,qcFlag 
LUMCON,ioos:station:LUMCON:101:1,2017-04-01T00:00:00Z,29.2533,-90.6633,56.0,1111122 
LUMCON,ioos:station:LUMCON:101:1,2017-04-01T00:15:00Z,29.2533,-90.6633,53.6,1111122 
LUMCON,ioos:station:LUMCON:101:1,2017-04-01T00:30:00Z,29.2533,-90.6633,57.7,1111122 
LUMCON,ioos:station:LUMCON:101:1,2017-04-01T00:45:00Z,29.2533,-90.6633,58.8,1111122 
LUMCON,ioos:station:LUMCON:101:1,2017-04-01T01:00:00Z,29.2533,-90.6633,58.0,1111122 
LUMCON,ioos:station:LUMCON:101:1,2017-04-01T01:15:00Z,29.2533,-90.6633,57.5,1111122 
LUMCON,ioos:station:LUMCON:101:1,2017-04-01T01:30:00Z,29.2533,-90.6633,55.8,1111122 
LUMCON,ioos:station:LUMCON:101:1,2017-04-01T01:45:00Z,29.2533,-90.6633,56.8,1111122 
LUMCON,ioos:station:LUMCON:101:1,2017-04-01T02:00:00Z,29.2533,-90.6633,56.6,1111122 
LUMCON,ioos:station:LUMCON:101:1,2017-04-01T02:15:00Z,29.2533,-90.6633,59.3,1111122 
LUMCON,ioos:station:LUMCON:101:1,2017-04-01T02:30:00Z,29.2533,-90.6633,60.2,1111122 
LUMCON,ioos:station:LUMCON:101:1,2017-04-01T02:45:00Z,29.2533,-90.6633,61.0,1111122 
LUMCON,ioos:station:LUMCON:101:1,2017-04-01T03:00:00Z,29.2533,-90.6633,59.1,1111122 
LUMCON,ioos:station:LUMCON:101:1,2017-04-01T03:15:00Z,29.2533,-90.6633,60.7,1111122 
LUMCON,ioos:station:LUMCON:101:1,2017-04-01T03:30:00Z,29.2533,-90.6633,62.8,1111122 
LUMCON,ioos:station:LUMCON:101:1,2017-04-01T03:45:00Z,29.2533,-90.6633,63.9,1111122 
LUMCON,ioos:station:LUMCON:101:1,2017-04-01T04:00:00Z,29.2533,-90.6633,65.3,1111122 
LUMCON,ioos:station:LUMCON:101:1,2017-04-01T04:15:00Z,29.2533,-90.6633,67.6,1111122 
LUMCON,ioos:station:LUMCON:101:1,2017-04-01T04:30:00Z,29.2533,-90.6633,68.7,1111122 
LUMCON,ioos:station:LUMCON:101:1,2017-04-01T04:45:00Z,29.2533,-90.6633,68.6,1111122 
LUMCON,ioos:station:LUMCON:101:1,2017-04-01T05:00:00Z,29.2533,-90.6633,67.1,1111122 
LUMCON,ioos:station:LUMCON:101:1,2017-04-01T05:15:00Z,29.2533,-90.6633,62.1,1111122 
LUMCON,ioos:station:LUMCON:101:1,2017-04-01T05:30:00Z,29.2533,-90.6633,63.0,1111122 
LUMCON,ioos:station:LUMCON:101:1,2017-04-01T05:45:00Z,29.2533,-90.6633,64.5,1111122 
LUMCON,ioos:station:LUMCON:101:1,2017-04-01T06:00:00Z,29.2533,-90.6633,65.5,1111122 
LUMCON,ioos:station:LUMCON:101:1,2017-04-01T06:15:00Z,29.2533,-90.6633,67.1,1111122 
LUMCON,ioos:station:LUMCON:101:1,2017-04-01T06:30:00Z,29.2533,-90.6633,68.3,1111122 
LUMCON,ioos:station:LUMCON:101:1,2017-04-01T06:45:00Z,29.2533,-90.6633,69.3,1111122 
LUMCON,ioos:station:LUMCON:101:1,2017-04-01T07:00:00Z,29.2533,-90.6633,69.2,1111122 
LUMCON,ioos:station:LUMCON:101:1,2017-04-01T07:15:00Z,29.2533,-90.6633,68.1,1111122 
LUMCON,ioos:station:LUMCON:101:1,2017-04-01T07:30:00Z,29.2533,-90.6633,68.5,1111122 
LUMCON,ioos:station:LUMCON:101:1,2017-04-01T07:45:00Z,29.2533,-90.6633,67.8,1111122 
LUMCON,ioos:station:LUMCON:101:1,2017-04-01T08:00:00Z,29.2533,-90.6633,67.7,1111122 
LUMCON,ioos:station:LUMCON:101:1,2017-04-01T08:15:00Z,29.2533,-90.6633,68.4,1111122 
LUMCON,ioos:station:LUMCON:101:1,2017-04-01T08:30:00Z,29.2533,-90.6633,68.0,1111122 
LUMCON,ioos:station:LUMCON:101:1,2017-04-01T08:45:00Z,29.2533,-90.6633,68.2,1111122 
LUMCON,ioos:station:LUMCON:101:1,2017-04-01T09:00:00Z,29.2533,-90.6633,70.6,1111122 
LUMCON,ioos:station:LUMCON:101:1,2017-04-01T09:15:00Z,29.2533,-90.6633,71.8,1111122 
LUMCON,ioos:station:LUMCON:101:1,2017-04-01T09:30:00Z,29.2533,-90.6633,71.8,1111122 
LUMCON,ioos:station:LUMCON:101:1,2017-04-01T09:45:00Z,29.2533,-90.6633,74.5,1111122 
LUMCON,ioos:station:LUMCON:101:1,2017-04-01T10:00:00Z,29.2533,-90.6633,73.1,1111122 
LUMCON,ioos:station:LUMCON:101:1,2017-04-01T10:15:00Z,29.2533,-90.6633,73.3,1111122 
LUMCON,ioos:station:LUMCON:101:1,2017-04-01T10:30:00Z,29.2533,-90.6633,71.7,1111122 
LUMCON,ioos:station:LUMCON:101:1,2017-04-01T10:45:00Z,29.2533,-90.6633,71.7,1111122 
LUMCON,ioos:station:LUMCON:101:1,2017-04-01T11:00:00Z,29.2533,-90.6633,72.0,1111122 
LUMCON,ioos:station:LUMCON:101:1,2017-04-01T11:15:00Z,29.2533,-90.6633,72.0,1111122 
LUMCON,ioos:station:LUMCON:101:1,2017-04-01T11:30:00Z,29.2533,-90.6633,71.1,1111122 
LUMCON,ioos:station:LUMCON:101:1,2017-04-01T11:45:00Z,29.2533,-90.6633,71.7,1111122 
LUMCON,ioos:station:LUMCON:101:1,2017-04-01T12:00:00Z,29.2533,-90.6633,71.7,1111122 
LUMCON,ioos:station:LUMCON:101:1,2017-04-01T12:15:00Z,29.2533,-90.6633,73.1,1111122 
LUMCON,ioos:station:LUMCON:101:1,2017-04-01T12:30:00Z,29.2533,-90.6633,72.6,1111122 
LUMCON,ioos:station:LUMCON:101:1,2017-04-01T12:45:00Z,29.2533,-90.6633,72.1,1111122 
LUMCON,ioos:station:LUMCON:101:1,2017-04-01T13:00:00Z,29.2533,-90.6633,70.3,1111122 
LUMCON,ioos:station:LUMCON:101:1,2017-04-01T13:15:00Z,29.2533,-90.6633,69.3,1111122 
LUMCON,ioos:station:LUMCON:101:1,2017-04-01T13:30:00Z,29.2533,-90.6633,68.9,1111122 
LUMCON,ioos:station:LUMCON:101:1,2017-04-01T13:45:00Z,29.2533,-90.6633,70.3,1111122 
LUMCON,ioos:station:LUMCON:101:1,2017-04-01T14:00:00Z,29.2533,-90.6633,67.6,1111122 
LUMCON,ioos:station:LUMCON:101:1,2017-04-01T14:15:00Z,29.2533,-90.6633,66.5,1111122 
LUMCON,ioos:station:LUMCON:101:1,2017-04-01T14:30:00Z,29.2533,-90.6633,67.0,1111122 
LUMCON,ioos:station:LUMCON:101:1,2017-04-01T14:45:00Z,29.2533,-90.6633,64.1,1111122 
LUMCON,ioos:station:LUMCON:101:1,2017-04-01T15:00:00Z,29.2533,-90.6633,63.2,1111122 
LUMCON,ioos:station:LUMCON:101:1,2017-04-01T15:15:00Z,29.2533,-90.6633,63.3,1111122 
LUMCON,ioos:station:LUMCON:101:1,2017-04-01T15:30:00Z,29.2533,-90.6633,61.8,1111122 
LUMCON,ioos:station:LUMCON:101:1,2017-04-01T15:45:00Z,29.2533,-90.6633,58.1,1111122 
LUMCON,ioos:station:LUMCON:101:1,2017-04-01T16:00:00Z,29.2533,-90.6633,56.7,1111122 
LUMCON,ioos:station:LUMCON:101:1,2017-04-01T16:15:00Z,29.2533,-90.6633,55.4,1111122 
LUMCON,ioos:station:LUMCON:101:1,2017-04-01T16:30:00Z,29.2533,-90.6633,55.0,1111122 
LUMCON,ioos:station:LUMCON:101:1,2017-04-01T16:45:00Z,29.2533,-90.6633,56.0,1111122 
LUMCON,ioos:station:LUMCON:101:1,2017-04-01T17:00:00Z,29.2533,-90.6633,54.2,1111122 
LUMCON,ioos:station:LUMCON:101:1,2017-04-01T17:15:00Z,29.2533,-90.6633,54.4,1111122 
LUMCON,ioos:station:LUMCON:101:1,2017-04-01T17:30:00Z,29.2533,-90.6633,53.6,1111122 
LUMCON,ioos:station:LUMCON:101:1,2017-04-01T17:45:00Z,29.2533,-90.6633,52.8,1111122 
LUMCON,ioos:station:LUMCON:101:1,2017-04-01T18:00:00Z,29.2533,-90.6633,54.2,1111122 
LUMCON,ioos:station:LUMCON:101:1,2017-04-01T18:15:00Z,29.2533,-90.6633,55.3,1111122 
LUMCON,ioos:station:LUMCON:101:1,2017-04-01T18:30:00Z,29.2533,-90.6633,56.0,1111122 
LUMCON,ioos:station:LUMCON:101:1,2017-04-01T18:45:00Z,29.2533,-90.6633,56.7,1111122 
LUMCON,ioos:station:LUMCON:101:1,2017-04-01T19:00:00Z,29.2533,-90.6633,55.4,1111122 
LUMCON,ioos:station:LUMCON:101:1,2017-04-01T19:15:00Z,29.2533,-90.6633,55.5,1111122 
LUMCON,ioos:station:LUMCON:101:1,2017-04-01T19:30:00Z,29.2533,-90.6633,55.1,1111122 
LUMCON,ioos:station:LUMCON:101:1,2017-04-01T19:45:00Z,29.2533,-90.6633,56.3,1111122 
LUMCON,ioos:station:LUMCON:101:1,2017-04-01T20:00:00Z,29.2533,-90.6633,57.0,1111122 
LUMCON,ioos:station:LUMCON:101:1,2017-04-01T20:15:00Z,29.2533,-90.6633,57.7,1111122 
LUMCON,ioos:station:LUMCON:101:1,2017-04-01T20:30:00Z,29.2533,-90.6633,58.3,1111122 
LUMCON,ioos:station:LUMCON:101:1,2017-04-01T20:45:00Z,29.2533,-90.6633,58.5,1111122 
LUMCON,ioos:station:LUMCON:101:1,2017-04-01T21:00:00Z,29.2533,-90.6633,57.2,1111122 
LUMCON,ioos:station:LUMCON:101:1,2017-04-01T21:15:00Z,29.2533,-90.6633,57.1,1111122 
LUMCON,ioos:station:LUMCON:101:1,2017-04-01T21:30:00Z,29.2533,-90.6633,56.8,1111122 
LUMCON,ioos:station:LUMCON:101:1,2017-04-01T21:45:00Z,29.2533,-90.6633,55.4,1111122 
LUMCON,ioos:station:LUMCON:101:1,2017-04-01T22:00:00Z,29.2533,-90.6633,56.4,1111122 
LUMCON,ioos:station:LUMCON:101:1,2017-04-01T22:15:00Z,29.2533,-90.6633,58.3,1111122 
LUMCON,ioos:station:LUMCON:101:1,2017-04-01T22:30:00Z,29.2533,-90.6633,59.5,1111122 
LUMCON,ioos:station:LUMCON:101:1,2017-04-01T22:45:00Z,29.2533,-90.6633,60.2,1111122 
LUMCON,ioos:station:LUMCON:101:1,2017-04-01T23:00:00Z,29.2533,-90.6633,61.2,1111122 
LUMCON,ioos:station:LUMCON:101:1,2017-04-01T23:15:00Z,29.2533,-90.6633,62.3,1111122 
LUMCON,ioos:station:LUMCON:101:1,2017-04-01T23:30:00Z,29.2533,-90.6633,64.5,1111122 
LUMCON,ioos:station:LUMCON:101:1,2017-04-01T23:45:00Z,29.2533,-90.6633,66.7,1111122 
LUMCON,ioos:station:LUMCON:101:1,2017-04-02T00:00:00Z,29.2533,-90.6633,68.8,1111122 
LUMCON,ioos:station:LUMCON:101:1,2017-04-02T00:15:00Z,29.2533,-90.6633,70.4,1111122 
LUMCON,ioos:station:LUMCON:101:1,2017-04-02T00:30:00Z,29.2533,-90.6633,70.9,1111122 
LUMCON,ioos:station:LUMCON:101:1,2017-04-02T00:45:00Z,29.2533,-90.6633,72.1,1111122 
LUMCON,ioos:station:LUMCON:101:1,2017-04-02T01:00:00Z,29.2533,-90.6633,71.3,1111122 
LUMCON,ioos:station:LUMCON:101:1,2017-04-02T01:15:00Z,29.2533,-90.6633,72.6,1111122 
LUMCON,ioos:station:LUMCON:101:1,2017-04-02T01:30:00Z,29.2533,-90.6633,73.5,1111122 
LUMCON,ioos:station:LUMCON:101:1,2017-04-02T01:45:00Z,29.2533,-90.6633,74.7,1111122 
LUMCON,ioos:station:LUMCON:101:1,2017-04-02T02:00:00Z,29.2533,-90.6633,75.6,1111122 
LUMCON,ioos:station:LUMCON:101:1,2017-04-02T02:15:00Z,29.2533,-90.6633,75.5,1111122 
LUMCON,ioos:station:LUMCON:101:1,2017-04-02T02:30:00Z,29.2533,-90.6633,76.4,1111122 
LUMCON,ioos:station:LUMCON:101:1,2017-04-02T02:45:00Z,29.2533,-90.6633,77.1,1111122 
LUMCON,ioos:station:LUMCON:101:1,2017-04-02T03:00:00Z,29.2533,-90.6633,78.0,1111122 
LUMCON,ioos:station:LUMCON:101:1,2017-04-02T03:15:00Z,29.2533,-90.6633,76.7,1111122 
LUMCON,ioos:station:LUMCON:101:1,2017-04-02T03:30:00Z,29.2533,-90.6633,77.9,1111122 
LUMCON,ioos:station:LUMCON:101:1,2017-04-02T03:45:00Z,29.2533,-90.6633,77.4,1111122 
LUMCON,ioos:station:LUMCON:101:1,2017-04-02T04:00:00Z,29.2533,-90.6633,79.3,1111122 
LUMCON,ioos:station:LUMCON:101:1,2017-04-02T04:15:00Z,29.2533,-90.6633,80.5,1111122 
LUMCON,ioos:station:LUMCON:101:1,2017-04-02T04:30:00Z,29.2533,-90.6633,81.6,1111122 
LUMCON,ioos:station:LUMCON:101:1,2017-04-02T04:45:00Z,29.2533,-90.6633,82.5,1111122 
LUMCON,ioos:station:LUMCON:101:1,2017-04-02T05:00:00Z,29.2533,-90.6633,83.4,1111122 
LUMCON,ioos:station:LUMCON:101:1,2017-04-02T05:15:00Z,29.2533,-90.6633,84.3,1111122 
LUMCON,ioos:station:LUMCON:101:1,2017-04-02T05:30:00Z,29.2533,-90.6633,84.4,1111122 
LUMCON,ioos:station:LUMCON:101:1,2017-04-02T05:45:00Z,29.2533,-90.6633,84.6,1111122 
LUMCON,ioos:station:LUMCON:101:1,2017-04-02T06:00:00Z,29.2533,-90.6633,84.7,1111122 
LUMCON,ioos:station:LUMCON:101:1,2017-04-02T06:15:00Z,29.2533,-90.6633,84.4,1111122 
LUMCON,ioos:station:LUMCON:101:1,2017-04-02T06:30:00Z,29.2533,-90.6633,84.3,1111122 
LUMCON,ioos:station:LUMCON:101:1,2017-04-02T06:45:00Z,29.2533,-90.6633,84.7,1111122 
LUMCON,ioos:station:LUMCON:101:1,2017-04-02T07:00:00Z,29.2533,-90.6633,84.2,1111122 
LUMCON,ioos:station:LUMCON:101:1,2017-04-02T07:15:00Z,29.2533,-90.6633,83.8,1111122 
LUMCON,ioos:station:LUMCON:101:1,2017-04-02T07:30:00Z,29.2533,-90.6633,84.0,1111122 
LUMCON,ioos:station:LUMCON:101:1,2017-04-02T07:45:00Z,29.2533,-90.6633,83.6,1111122 
LUMCON,ioos:station:LUMCON:101:1,2017-04-02T08:00:00Z,29.2533,-90.6633,84.4,1111122 
LUMCON,ioos:station:LUMCON:101:1,2017-04-02T08:15:00Z,29.2533,-90.6633,84.3,1111122 
LUMCON,ioos:station:LUMCON:101:1,2017-04-02T08:30:00Z,29.2533,-90.6633,84.7,1111122 
LUMCON,ioos:station:LUMCON:101:1,2017-04-02T08:45:00Z,29.2533,-90.6633,85.6,1111122 
LUMCON,ioos:station:LUMCON:101:1,2017-04-02T09:00:00Z,29.2533,-90.6633,86.1,1111122 
LUMCON,ioos:station:LUMCON:101:1,2017-04-02T09:15:00Z,29.2533,-90.6633,86.2,1111122 
LUMCON,ioos:station:LUMCON:101:1,2017-04-02T09:30:00Z,29.2533,-90.6633,86.5,1111122 
LUMCON,ioos:station:LUMCON:101:1,2017-04-02T09:45:00Z,29.2533,-90.6633,86.4,1111122 
LUMCON,ioos:station:LUMCON:101:1,2017-04-02T10:00:00Z,29.2533,-90.6633,85.9,1111122 
LUMCON,ioos:station:LUMCON:101:1,2017-04-02T10:15:00Z,29.2533,-90.6633,85.7,1111122 
LUMCON,ioos:station:LUMCON:101:1,2017-04-02T10:30:00Z,29.2533,-90.6633,85.0,1111122 
LUMCON,ioos:station:LUMCON:101:1,2017-04-02T10:45:00Z,29.2533,-90.6633,84.7,1111122 
LUMCON,ioos:station:LUMCON:101:1,2017-04-02T11:00:00Z,29.2533,-90.6633,85.2,1111122 
LUMCON,ioos:station:LUMCON:101:1,2017-04-02T11:15:00Z,29.2533,-90.6633,85.0,1111122 
LUMCON,ioos:station:LUMCON:101:1,2017-04-02T11:30:00Z,29.2533,-90.6633,85.6,1111122 
LUMCON,ioos:station:LUMCON:101:1,2017-04-02T11:45:00Z,29.2533,-90.6633,85.7,1111122 
LUMCON,ioos:station:LUMCON:101:1,2017-04-02T12:00:00Z,29.2533,-90.6633,85.5,1111122 
LUMCON,ioos:station:LUMCON:101:1,2017-04-02T12:15:00Z,29.2533,-90.6633,86.1,1111122 
LUMCON,ioos:station:LUMCON:101:1,2017-04-02T12:30:00Z,29.2533,-90.6633,86.0,1111122 
LUMCON,ioos:station:LUMCON:101:1,2017-04-02T12:45:00Z,29.2533,-90.6633,86.1,1111122 
LUMCON,ioos:station:LUMCON:101:1,2017-04-02T13:00:00Z,29.2533,-90.6633,86.2,1111122 
LUMCON,ioos:station:LUMCON:101:1,2017-04-02T13:15:00Z,29.2533,-90.6633,86.0,1111122 
LUMCON,ioos:station:LUMCON:101:1,2017-04-02T13:30:00Z,29.2533,-90.6633,85.9,1111122 
LUMCON,ioos:station:LUMCON:101:1,2017-04-02T13:45:00Z,29.2533,-90.6633,85.3,1111122 
LUMCON,ioos:station:LUMCON:101:1,2017-04-02T14:00:00Z,29.2533,-90.6633,85.7,1111122 
LUMCON,ioos:station:LUMCON:101:1,2017-04-02T14:15:00Z,29.2533,-90.6633,85.8,1111122 
LUMCON,ioos:station:LUMCON:101:1,2017-04-02T14:30:00Z,29.2533,-90.6633,86.0,1111122 
LUMCON,ioos:station:LUMCON:101:1,2017-04-02T14:45:00Z,29.2533,-90.6633,85.5,1111122 
LUMCON,ioos:station:LUMCON:101:1,2017-04-02T15:00:00Z,29.2533,-90.6633,85.2,1111122 
LUMCON,ioos:station:LUMCON:101:1,2017-04-02T15:15:00Z,29.2533,-90.6633,84.8,1111122 
LUMCON,ioos:station:LUMCON:101:1,2017-04-02T15:30:00Z,29.2533,-90.6633,85.8,1111122 
LUMCON,ioos:station:LUMCON:101:1,2017-04-02T15:45:00Z,29.2533,-90.6633,86.1,1111122 
LUMCON,ioos:station:LUMCON:101:1,2017-04-02T16:00:00Z,29.2533,-90.6633,86.1,1111122 
LUMCON,ioos:station:LUMCON:101:1,2017-04-02T16:15:00Z,29.2533,-90.6633,86.3,1111122 
LUMCON,ioos:station:LUMCON:101:1,2017-04-02T16:30:00Z,29.2533,-90.6633,85.8,1111122 
LUMCON,ioos:station:LUMCON:101:1,2017-04-02T16:45:00Z,29.2533,-90.6633,86.0,1111122 
LUMCON,ioos:station:LUMCON:101:1,2017-04-02T17:00:00Z,29.2533,-90.6633,86.2,1111122 
LUMCON,ioos:station:LUMCON:101:1,2017-04-02T17:15:00Z,29.2533,-90.6633,86.7,1111122 
LUMCON,ioos:station:LUMCON:101:1,2017-04-02T17:30:00Z,29.2533,-90.6633,85.8,1111122 
LUMCON,ioos:station:LUMCON:101:1,2017-04-02T17:45:00Z,29.2533,-90.6633,86.1,1111122 
LUMCON,ioos:station:LUMCON:101:1,2017-04-02T18:00:00Z,29.2533,-90.6633,86.4,1111122 
LUMCON,ioos:station:LUMCON:101:1,2017-04-02T18:15:00Z,29.2533,-90.6633,86.4,1111122 
LUMCON,ioos:station:LUMCON:101:1,2017-04-02T18:30:00Z,29.2533,-90.6633,85.8,1111122 
LUMCON,ioos:station:LUMCON:101:1,2017-04-02T18:45:00Z,29.2533,-90.6633,86.0,1111122 
LUMCON,ioos:station:LUMCON:101:1,2017-04-02T19:00:00Z,29.2533,-90.6633,86.0,1111122 
LUMCON,ioos:station:LUMCON:101:1,2017-04-02T19:15:00Z,29.2533,-90.6633,85.5,1111122 
LUMCON,ioos:station:LUMCON:101:1,2017-04-02T19:30:00Z,29.2533,-90.6633,85.7,1111122 
LUMCON,ioos:station:LUMCON:101:1,2017-04-02T19:45:00Z,29.2533,-90.6633,86.1,1111122 
LUMCON,ioos:station:LUMCON:101:1,2017-04-02T20:00:00Z,29.2533,-90.6633,85.9,1111122 
LUMCON,ioos:station:LUMCON:101:1,2017-04-02T20:15:00Z,29.2533,-90.6633,86.3,1111122 
LUMCON,ioos:station:LUMCON:101:1,2017-04-02T20:30:00Z,29.2533,-90.6633,85.9,1111122 
LUMCON,ioos:station:LUMCON:101:1,2017-04-02T20:45:00Z,29.2533,-90.6633,85.2,1111122 
LUMCON,ioos:station:LUMCON:101:1,2017-04-02T21:00:00Z,29.2533,-90.6633,85.8,1111122 
LUMCON,ioos:station:LUMCON:101:1,2017-04-02T21:15:00Z,29.2533,-90.6633,86.2,1111122 
LUMCON,ioos:station:LUMCON:101:1,2017-04-02T21:30:00Z,29.2533,-90.6633,86.3,1111122 
LUMCON,ioos:station:LUMCON:101:1,2017-04-02T21:45:00Z,29.2533,-90.6633,86.6,1111122 
LUMCON,ioos:station:LUMCON:101:1,2017-04-02T22:00:00Z,29.2533,-90.6633,87.1,1111122 
LUMCON,ioos:station:LUMCON:101:1,2017-04-02T22:15:00Z,29.2533,-90.6633,87.1,1111122 
LUMCON,ioos:station:LUMCON:101:1,2017-04-02T22:30:00Z,29.2533,-90.6633,86.5,1111122 
LUMCON,ioos:station:LUMCON:101:1,2017-04-02T22:45:00Z,29.2533,-90.6633,86.7,1111122 
LUMCON,ioos:station:LUMCON:101:1,2017-04-02T23:00:00Z,29.2533,-90.6633,86.7,1111122 
LUMCON,ioos:station:LUMCON:101:1,2017-04-02T23:15:00Z,29.2533,-90.6633,87.0,1111122 
LUMCON,ioos:station:LUMCON:101:1,2017-04-02T23:30:00Z,29.2533,-90.6633,87.4,1111122 
LUMCON,ioos:station:LUMCON:101:1,2017-04-02T23:45:00Z,29.2533,-90.6633,87.4,1111122 
LUMCON,ioos:station:LUMCON:101:1,2017-04-03T00:00:00Z,29.2533,-90.6633,87.7,1111122 
LUMCON,ioos:station:LUMCON:101:1,2017-04-03T00:15:00Z,29.2533,-90.6633,87.8,1111122 
LUMCON,ioos:station:LUMCON:101:1,2017-04-03T00:30:00Z,29.2533,-90.6633,87.7,1111122 
LUMCON,ioos:station:LUMCON:101:1,2017-04-03T00:45:00Z,29.2533,-90.6633,87.8,1111122 
LUMCON,ioos:station:LUMCON:101:1,2017-04-03T01:00:00Z,29.2533,-90.6633,88.0,1111122 
LUMCON,ioos:station:LUMCON:101:1,2017-04-03T01:15:00Z,29.2533,-90.6633,87.9,1111122 
LUMCON,ioos:station:LUMCON:101:1,2017-04-03T01:30:00Z,29.2533,-90.6633,87.9,1111122 
LUMCON,ioos:station:LUMCON:101:1,2017-04-03T01:45:00Z,29.2533,-90.6633,87.4,1111122 
LUMCON,ioos:station:LUMCON:101:1,2017-04-03T02:00:00Z,29.2533,-90.6633,87.3,1111122 
LUMCON,ioos:station:LUMCON:101:1,2017-04-03T02:15:00Z,29.2533,-90.6633,87.1,1111122 
LUMCON,ioos:station:LUMCON:101:1,2017-04-03T02:30:00Z,29.2533,-90.6633,87.3,1111122 
LUMCON,ioos:station:LUMCON:101:1,2017-04-03T02:45:00Z,29.2533,-90.6633,87.3,1111122 
LUMCON,ioos:station:LUMCON:101:1,2017-04-03T03:00:00Z,29.2533,-90.6633,87.3,1111122 
LUMCON,ioos:station:LUMCON:101:1,2017-04-03T03:15:00Z,29.2533,-90.6633,87.1,1111122 
LUMCON,ioos:station:LUMCON:101:1,2017-04-03T03:30:00Z,29.2533,-90.6633,87.1,1111122 
LUMCON,ioos:station:LUMCON:101:1,2017-04-03T03:45:00Z,29.2533,-90.6633,87.3,1111122 
LUMCON,ioos:station:LUMCON:101:1,2017-04-03T04:00:00Z,29.2533,-90.6633,86.8,1111122 
LUMCON,ioos:station:LUMCON:101:1,2017-04-03T04:15:00Z,29.2533,-90.6633,86.3,1111122 
LUMCON,ioos:station:LUMCON:101:1,2017-04-03T04:30:00Z,29.2533,-90.6633,86.2,1111122 
LUMCON,ioos:station:LUMCON:101:1,2017-04-03T04:45:00Z,29.2533,-90.6633,85.7,1111122 
LUMCON,ioos:station:LUMCON:101:1,2017-04-03T05:00:00Z,29.2533,-90.6633,85.6,1111122 
LUMCON,ioos:station:LUMCON:101:1,2017-04-03T05:15:00Z,29.2533,-90.6633,85.5,1111122 
LUMCON,ioos:station:LUMCON:101:1,2017-04-03T05:30:00Z,29.2533,-90.6633,85.8,1111122 
LUMCON,ioos:station:LUMCON:101:1,2017-04-03T05:45:00Z,29.2533,-90.6633,85.9,1111122 
LUMCON,ioos:station:LUMCON:101:1,2017-04-03T06:00:00Z,29.2533,-90.6633,86.2,1111122 
LUMCON,ioos:station:LUMCON:101:1,2017-04-03T06:15:00Z,29.2533,-90.6633,86.5,1111122 
LUMCON,ioos:station:LUMCON:101:1,2017-04-03T06:30:00Z,29.2533,-90.6633,86.5,1111122 
LUMCON,ioos:station:LUMCON:101:1,2017-04-03T06:45:00Z,29.2533,-90.6633,86.6,1111122 
LUMCON,ioos:station:LUMCON:101:1,2017-04-03T07:00:00Z,29.2533,-90.6633,86.7,1111122 
LUMCON,ioos:station:LUMCON:101:1,2017-04-03T07:15:00Z,29.2533,-90.6633,86.7,1111122 
LUMCON,ioos:station:LUMCON:101:1,2017-04-03T07:30:00Z,29.2533,-90.6633,86.4,1111122 
LUMCON,ioos:station:LUMCON:101:1,2017-04-03T07:45:00Z,29.2533,-90.6633,86.3,1111122 
LUMCON,ioos:station:LUMCON:101:1,2017-04-03T08:00:00Z,29.2533,-90.6633,86.4,1111122 
LUMCON,ioos:station:LUMCON:101:1,2017-04-03T08:15:00Z,29.2533,-90.6633,86.7,1111122 
LUMCON,ioos:station:LUMCON:101:1,2017-04-03T08:30:00Z,29.2533,-90.6633,86.8,1111122 
LUMCON,ioos:station:LUMCON:101:1,2017-04-03T08:45:00Z,29.2533,-90.6633,86.8,1111122 
LUMCON,ioos:station:LUMCON:101:1,2017-04-03T09:00:00Z,29.2533,-90.6633,87.2,1111122 
LUMCON,ioos:station:LUMCON:101:1,2017-04-03T09:15:00Z,29.2533,-90.6633,88.3,1111122 
LUMCON,ioos:station:LUMCON:101:1,2017-04-03T09:30:00Z,29.2533,-90.6633,88.9,1111122 
LUMCON,ioos:station:LUMCON:101:1,2017-04-03T09:45:00Z,29.2533,-90.6633,90.4,1111122 
LUMCON,ioos:station:LUMCON:101:1,2017-04-03T10:00:00Z,29.2533,-90.6633,89.9,1111122 
LUMCON,ioos:station:LUMCON:101:1,2017-04-03T10:15:00Z,29.2533,-90.6633,88.6,1111122 
LUMCON,ioos:station:LUMCON:101:1,2017-04-03T10:30:00Z,29.2533,-90.6633,86.9,1111122 
LUMCON,ioos:station:LUMCON:101:1,2017-04-03T10:45:00Z,29.2533,-90.6633,87.6,1111122 
LUMCON,ioos:station:LUMCON:101:1,2017-04-03T11:00:00Z,29.2533,-90.6633,87.9,1111122 
LUMCON,ioos:station:LUMCON:101:1,2017-04-03T11:15:00Z,29.2533,-90.6633,88.2,1111122 
LUMCON,ioos:station:LUMCON:101:1,2017-04-03T11:30:00Z,29.2533,-90.6633,88.7,1111122 
LUMCON,ioos:station:LUMCON:101:1,2017-04-03T11:45:00Z,29.2533,-90.6633,88.1,1111122 
LUMCON,ioos:station:LUMCON:101:1,2017-04-03T12:00:00Z,29.2533,-90.6633,87.6,1111122 
LUMCON,ioos:station:LUMCON:101:1,2017-04-03T12:15:00Z,29.2533,-90.6633,86.8,1111122 
LUMCON,ioos:station:LUMCON:101:1,2017-04-03T12:30:00Z,29.2533,-90.6633,86.6,1111122 
LUMCON,ioos:station:LUMCON:101:1,2017-04-03T12:45:00Z,29.2533,-90.6633,87.1,1111122 
LUMCON,ioos:station:LUMCON:101:1,2017-04-03T13:00:00Z,29.2533,-90.6633,87.4,1111122 
LUMCON,ioos:station:LUMCON:101:1,2017-04-03T13:15:00Z,29.2533,-90.6633,87.5,1111122 
LUMCON,ioos:station:LUMCON:101:1,2017-04-03T13:30:00Z,29.2533,-90.6633,87.3,1111122 
LUMCON,ioos:station:LUMCON:101:1,2017-04-03T13:45:00Z,29.2533,-90.6633,87.1,1111122 
LUMCON,ioos:station:LUMCON:101:1,2017-04-03T14:00:00Z,29.2533,-90.6633,86.5,1111122 
LUMCON,ioos:station:LUMCON:101:1,2017-04-03T14:15:00Z,29.2533,-90.6633,82.9,1111122 
LUMCON,ioos:station:LUMCON:101:1,2017-04-03T14:30:00Z,29.2533,-90.6633,81.3,1111122 
LUMCON,ioos:station:LUMCON:101:1,2017-04-03T14:45:00Z,29.2533,-90.6633,82.5,1111122 
LUMCON,ioos:station:LUMCON:101:1,2017-04-03T15:00:00Z,29.2533,-90.6633,83.5,1111122 
LUMCON,ioos:station:LUMCON:101:1,2017-04-03T15:15:00Z,29.2533,-90.6633,80.7,1111122 
LUMCON,ioos:station:LUMCON:101:1,2017-04-03T15:30:00Z,29.2533,-90.6633,80.0,1111122 
LUMCON,ioos:station:LUMCON:101:1,2017-04-03T15:45:00Z,29.2533,-90.6633,75.8,1111122 
LUMCON,ioos:station:LUMCON:101:1,2017-04-03T16:00:00Z,29.2533,-90.6633,71.4,1111122 
LUMCON,ioos:station:LUMCON:101:1,2017-04-03T16:15:00Z,29.2533,-90.6633,67.0,1111122 
LUMCON,ioos:station:LUMCON:101:1,2017-04-03T16:30:00Z,29.2533,-90.6633,66.7,1111122 
LUMCON,ioos:station:LUMCON:101:1,2017-04-03T16:45:00Z,29.2533,-90.6633,66.1,1111122 
LUMCON,ioos:station:LUMCON:101:1,2017-04-03T17:00:00Z,29.2533,-90.6633,65.9,1111122 
LUMCON,ioos:station:LUMCON:101:1,2017-04-03T17:15:00Z,29.2533,-90.6633,59.1,1111122 
LUMCON,ioos:station:LUMCON:101:1,2017-04-03T17:30:00Z,29.2533,-90.6633,58.9,1111122 
LUMCON,ioos:station:LUMCON:101:1,2017-04-03T17:45:00Z,29.2533,-90.6633,59.3,1111122 
LUMCON,ioos:station:LUMCON:101:1,2017-04-03T18:00:00Z,29.2533,-90.6633,60.2,1111122 
LUMCON,ioos:station:LUMCON:101:1,2017-04-03T18:15:00Z,29.2533,-90.6633,51.1,1111122 
LUMCON,ioos:station:LUMCON:101:1,2017-04-03T18:30:00Z,29.2533,-90.6633,48.4,1111122 
LUMCON,ioos:station:LUMCON:101:1,2017-04-03T18:45:00Z,29.2533,-90.6633,42.6,1111122 
LUMCON,ioos:station:LUMCON:101:1,2017-04-03T19:00:00Z,29.2533,-90.6633,46.0,1111122 
LUMCON,ioos:station:LUMCON:101:1,2017-04-03T19:15:00Z,29.2533,-90.6633,47.6,1111122 
LUMCON,ioos:station:LUMCON:101:1,2017-04-03T19:30:00Z,29.2533,-90.6633,51.4,1111122 
LUMCON,ioos:station:LUMCON:101:1,2017-04-03T20:00:00Z,29.2533,-90.6633,49.0,1111122 
LUMCON,ioos:station:LUMCON:101:1,2017-04-03T20:15:00Z,29.2533,-90.6633,47.6,1111122 
LUMCON,ioos:station:LUMCON:101:1,2017-04-03T20:30:00Z,29.2533,-90.6633,49.1,1111122 
LUMCON,ioos:station:LUMCON:101:1,2017-04-03T20:45:00Z,29.2533,-90.6633,48.7,1111122 
LUMCON,ioos:station:LUMCON:101:1,2017-04-03T21:00:00Z,29.2533,-90.6633,48.9,1111122 
LUMCON,ioos:station:LUMCON:101:1,2017-04-03T21:15:00Z,29.2533,-90.6633,50.4,1111122 
LUMCON,ioos:station:LUMCON:101:1,2017-04-03T21:30:00Z,29.2533,-90.6633,48.9,1111122 
LUMCON,ioos:station:LUMCON:101:1,2017-04-03T21:45:00Z,29.2533,-90.6633,50.6,1111122 
LUMCON,ioos:station:LUMCON:101:1,2017-04-03T22:00:00Z,29.2533,-90.6633,50.1,1111122 
LUMCON,ioos:station:LUMCON:101:1,2017-04-03T22:15:00Z,29.2533,-90.6633,51.3,1111122 